Regional Weather Roundup
Issued by NWS

Home | Current Version | Previous Version | Graphics & Text | Print | Product List | Glossary On
Versions: 1 2 3 4 5 6 7 8 9 10 11 12 13 14 15 16 17 18 19 20 21 22 23 24 25 26 27 28 29 30 31 32 33 34 35 36 37 38 39 40 41 42 43 44 45 46 47 48 49 50
000
ASUS43 KMPX 260010
RWRMN
WEATHER ROUNDUP FOR MINNESOTA
NATIONAL WEATHER SERVICE TWIN CITIES/CHANHASSEN MN
700 PM CDT SAT MAR 25 2017


NOTE: "FAIR" INDICATES FEW OR NO CLOUDS BELOW 12,000 FEET WITH NO
SIGNIFICANT WEATHER AND/OR OBSTRUCTIONS TO VISIBILITY. N/A MEANS
CURRENT SKY AND/OR WEATHER CONDITIONS ARE NOT AVAILABLE.

MNZ060>063-068>070-260100-
   Twin Cities Metro

CITY           SKY/WX    TMP DP  RH WIND       PRES   REMARKS
TWIN CITIES    CLOUDY    42  33  70 E13       30.06S
6HR MIN TEMP:  41; 6HR MAX TEMP:  43;

ST PAUL        CLOUDY    41  36  82 E10       30.08S HAZE
CRYSTAL        CLOUDY    42  31  64 E8        30.05F
BLAINE         CLOUDY    43  34  70 NE10      30.06F
LAKEVILLE      DRIZZLE   37  37 100 NE9       30.05S
EDEN PRAIRIE   CLOUDY    43  33  68 E13       30.04F
6HR MIN TEMP:  41; 6HR MAX TEMP:  43;

SOUTH ST PAUL  CLOUDY    41  36  81 E6        30.06S HAZE
LAKE ELMO      CLOUDY    41  34  75 E9        30.07S
$$
MNZ001>005-007-008-013>017-022>024-027-028-260100-
   Northwest Minnesota

CITY           SKY/WX    TMP DP  RH WIND       PRES   REMARKS
BEMIDJI        CLOUDY    39  29  66 SE12      30.05F
HALLOCK        CLOUDY    37  34  87 S12       30.01F
ROSEAU         CLOUDY    41  34  75 SE6       30.03F
WARROAD        CLOUDY    41  32  70 S10       30.05S
THIEF RVR FALL CLOUDY   N/A N/A N/A SE7       30.03F
CROOKSTON      CLOUDY    39  36  87 W6        30.05S
FOSSTON        CLOUDY    45  32  61 SE7       30.03F
DETROIT LAKES  CLOUDY    45  32  61 SE10      30.04S
MOORHEAD       CLOUDY    39  34  81 S6        30.04F
PARK RAPIDS    CLOUDY    44  26  49 SE8       30.05S
MAHNOMEN       FAIR      44  33  63 SE5       30.02F
$$
MNZ006-009>011-018-025>026-260100-
   North Central Minnesota

CITY           SKY/WX    TMP DP  RH WIND       PRES   REMARKS
BAUDETTE       CLOUDY    41  28  60 SE8       30.05F
FLAG ISLAND    CLOUDY    37  28  70 SE14      30.04F
INTL FALLS     CLOUDY    39  25  57 SE7       30.10F
6HR MIN TEMP:  37; 6HR MAX TEMP:  41;

WASKISH        CLOUDY    41  28  60 S6        30.08S
BIG FORK       CLOUDY    37  27  65 SE5       30.11S
LONGVILLE      CLOUDY    39  28  65 E5        30.09S
GRAND RAPIDS   CLOUDY    34  27  75 SE10G16   30.14S WCI  26
CRANE LAKE     CLOUDY    37  25  60 SE5       30.15S
ORR            CLOUDY    36  23  60 CALM      30.11S
COOK           CLOUDY    34  27  75 SE5       30.15S WCI  30
WALKER         FAIR      37  28  70 E6        30.07F
$$
MNZ012-019>021-037-260100-
   Northeast Minnesota

CITY           SKY/WX    TMP DP  RH WIND       PRES   REMARKS
DULUTH         CLOUDY    31  29  92 E17       30.14F WCI  19
6HR MIN TEMP:  30; 6HR MAX TEMP:  35;

ELY            CLOUDY    30  25  80 SE10      30.17S WCI  21
HIBBING        CLOUDY    31  26  82 SE17      30.15R WCI  19
EVELETH        CLOUDY    32  25  75 E8G17     30.17S WCI  25
DULUTH HARBOR  CLOUDY    34  30  86 NE23      30.18F WCI  22
TWO HARBORS    CLOUDY    34  28  80 E12G22    30.17S WCI  25
SILVER BAY     CLOUDY    30  28  93 NE10G17   30.19S WCI  21
GRAND MARAIS     N/A     32  24  72 E20G28    30.26R WCI  20
G MARAIS ARPRT CLOUDY    28  18  64 E6        30.20S WCI  22
$$
MNZ029>031-032-039>041-046>048-054>057-064-260100-
   West Central Minnesota

CITY           SKY/WX    TMP DP  RH WIND       PRES   REMARKS
FERGUS FALLS   CLOUDY    45  32  61 S10       30.07F
WHEATON        CLOUDY    39  32  75 SE9       30.08S
MORRIS         CLOUDY    39  34  81 E12       30.05S
ALEXANDRIA     CLEAR     40  32  73 SE9       30.05F
ELBOW LAKE     FAIR      42  32  69 E9        30.06S
WADENA         CLEAR     43  30  61 E8        30.05S
GLENWOOD       CLOUDY    39  34  81 E7        30.06F
APPLETON       CLOUDY    39  34  81 E9        30.05S
BENSON         CLOUDY    43  30  61 E8        30.06F
MADISON        CLOUDY    41  37  87 E12       30.05R
WILLMAR        CLOUDY    41  36  81 E10       30.06S
$$
MNZ033>034-036-042>043-049>051-058-059-260100-
   Central Minnesota

CITY           SKY/WX    TMP DP  RH WIND       PRES   REMARKS
ST CLOUD       CLOUDY    43  34  70 VRB7      30.06F
6HR MIN TEMP:  37; 6HR MAX TEMP:  43;

SAUK CENTRE    CLOUDY    40  32  74 NE5       30.06F
PAYNESVILLE      N/A     40  33  75 E7        30.06S
AITKIN         CLEAR     39  27  60 NE12G17   30.09F
PINE RIVER     CLOUDY    39  30  70 E10       30.12S
BRAINERD       CLEAR     41  29  62 NE10      30.08S
STAPLES        CLEAR     43  27  52 SE8       30.06S
LONG PRAIRIE   FAIR      41  32  70 SE8       30.06S
LITTLE FALLS   PTCLDY    45  32  61 E7        30.06F
LITCHFIELD     CLOUDY    43  36  75 E10       30.05F
BUFFALO        CLOUDY    41  32  71 NE8       30.06F
MAPLE LAKE     CLOUDY    42  35  78 E9        30.07S
HUTCHINSON     CLOUDY    41  36  81 NE9       30.05F
$$
MNZ037-044-045-052-053-260100-
   East Central Minnesota

CITY           SKY/WX    TMP DP  RH WIND       PRES   REMARKS
PRINCETON      CLOUDY    45  34  65 E8        30.07F
MORA           CLOUDY    45  32  61 E6        30.09F
CAMBRIDGE      CLOUDY    46  32  57 NE6       30.06S
RUSH CITY      CLOUDY    43  32  64 E8        30.08F
MOOSE LAKE     CLOUDY    34  30  86 NE8       30.11F WCI  27
CLOQUET        CLOUDY    30  28  93 E10       30.14S WCI  21
MCGREGOR       CLOUDY    36  30  80 E13       30.13S
$$
MNZ071>073-080-081-089-090-097-098-260100-
   Southwest Minnesota

CITY           SKY/WX    TMP DP  RH WIND       PRES   REMARKS
MONTEVIDEO     CLOUDY    39  36  87 E8        30.06S
GRANITE FALLS  CLOUDY    42  37  82 NE10      30.06S
CANBY          CLOUDY    40  37  87 CALM      30.05S
MARSHALL       CLOUDY    40  37  89 E12       30.03S FOG
REDWOOD FALLS  CLOUDY    42  34  73 E9        30.03S
OLIVIA         CLOUDY    41  34  75 E9        30.04S
PIPESTONE      CLOUDY    39  34  81 E7        29.99S HAZE
WINDOM         MIX PCPN  37  37 100 NE10      30.01S
WORTHINGTON    CLOUDY    37  36  96 NE12      30.00R FOG
JACKSON        CLOUDY    36  36 100 NE10      30.00S FOG
TRACY          CLOUDY    40  37  89 NE9       30.02S
SLAYTON        CLOUDY    37  37  97 NE9       30.01S FOG
$$
MNZ065>067-074>077-082>085-091>093-260100-
   South Central Minnesota

CITY           SKY/WX    TMP DP  RH WIND       PRES   REMARKS
MANKATO        LGT RAIN  38  37  97 NE10      30.04R FOG
NEW ULM        DRIZZLE   39  36  87 E8        30.03F
ST JAMES       CLOUDY    37  37 100 NE8       30.03S FOG
FAIRMONT       CLOUDY    38  36  92 NE10      30.01S
GLENCOE        CLOUDY    41  37  83 NE7       30.04S
FARIBAULT      DRIZZLE   37  37 100 NE8G16    30.04R
OWATONNA       LGT RAIN  37  36  93 NE7       30.02S
WASECA         CLOUDY    36  34  93 NE9       30.04R FOG
ALBERT LEA     MIX PCPN  37  37 100 E13       29.99S
$$
MNZ078>079-086>088-094>096-260100-
   Southeast Minnesota

CITY           SKY/WX    TMP DP  RH WIND       PRES   REMARKS
ROCHESTER      LGT RAIN  37  36  96 E15       30.00S FOG
6HR MIN TEMP:  37; 6HR MAX TEMP:  38; 6HR PCP:  0.07;

RED WING       DRIZZLE   39  36  87 E6        30.05S
STANTON        DRIZZLE   39  36  91 NE10      30.03S
DODGE CENTER   LGT RAIN  37  36  93 NE14      30.01R
WINONA         DRIZZLE   37  36  93 E12       30.05S
AUSTIN         LGT RAIN  37  36  93 E13G18    30.00R
PRESTON        CLOUDY    36  34  92 E10       30.00F
$$
ABBREVIATIONS USED IN REMARKS
   TC - TEMPERATURES IN CELSIUS
  WCI - WIND CHILL INDEX
   HX - HEAT INDEX
  VSB - VISIBILITY
$$




USA.gov is the U.S. government's official web portal to all federal, state and local government web resources and services.